sat.trackr.live / text

‹ back to catalog

STARLINK-35414

NORAD 65798 · 2025-218H

PAYLOAD ACTIVE UNKNOWN

§ Identity

Operator
Country
US
Launch date
2025-09-26
Launch site
AFWTR
Launch vehicle
Mass (kg)
RCS (m²)

Purposes: comms

External: N2YO · Heavens-Above · Gunter

§ Orbital elements

Epoch: 2026-09-20T14:28:58.329696Z

Period
93.91 min
Inclination
97.2822°
Eccentricity
0.0002086
Mean motion
15.33450249 rev/d
Perigee alt
464.1 km
Apogee alt
467.0 km
Semi-major
6,843.7 km
B*
4.6255e-4
RAAN
121.0365°
Arg perigee
89.0198°
Mean anomaly
271.1284°
Rev number
5,435

§ Raw data

STARLINK-354141 65798U 25218H   26263.60345289  .00014890  00000+0  46255-3 0  99952 65798  97.2822 121.0365 0002086  89.0198 271.1284 15.33450249 54354

JSON: /api/v1/satellites/65798 · /tle

For live sub-satellite position, see the globe view (requires WebGL).

§ Visibility from observer

Set your observer location to see the next 7 days of passes ≥ 10°. The values pass through the URL so the page stays shareable.

No JS? Fill the form by hand. The geolocation button needs JavaScript.